INTELSAT 904 (IS-904) (27380 NORAD) Tracking and Keplerian Element Data

This shows tracking and keplerian element data for the satellite.

Feedback or suggestion? Click here.




ElementValue
Catalog27380
NameINTELSAT 904 (IS-904)
Epoch Orbit4434
Epoch Day159.48801446
Epoch Year2024
RAAN77.9524
Inclination5.0574
Eccentricity0.0002694
Argument of Perigee11.5348
Mean Anonmoly313.0526
Mean Motion1.00271287
Decay Rate-2.17E-06
L11 27380U 02007A 24159.48801446 -.00000217 00000+0 00000+0 0 9994
L22 27380 5.0574 77.9524 0002694 11.5348 313.0526 1.00271287 44343



Live tracking and technical data element details for INTELSAT 904 (IS-904) (NORAD 27380). INTELSAT 904 (IS-904) can be tracked NOW for your location showing map with azimuth and elevation plus other details from your city location.







IsCatalogInMostPopularTable: catalog: 27380, numindb: 601
Update: records affected: 1



GetName: 27380 INTELSAT 904 (IS-904)

Hit Count: updated at: Sun, 23 Jun 2024 02:22:30 GMT